| time (UTC) | temp C | wind direction | speed KPH | gust KPH | rain 1hr cm | rain 24hr cm | rain mn cm | humidity % | barometer mb |
| 20260506125015 | 22 | 10 | 3.2 | 8.0 | 0.00 | 0.00 | 0.00 | 92 | 1009.0 |
| 20260506124015 | 22 | 9 | 3.2 | 8.0 | 0.00 | 0.00 | 0.00 | 92 | 1009.1 |
| 20260506123015 | 22 | 9 | 0.0 | 6.4 | 0.00 | 0.00 | 0.00 | 92 | 1009.1 |
| 20260506122015 | 22 | 12 | 0.0 | 3.2 | 0.00 | 0.00 | 0.00 | 92 | 1008.9 |
| 20260506121015 | 22 | 9 | 1.6 | 8.0 | 0.00 | 0.00 | 0.00 | 92 | 1008.8 |
| 20260506120015 | 22 | 9 | 3.2 | 8.0 | 0.00 | 0.00 | 0.00 | 92 | 1008.8 |
| 20260506115015 | 22 | 8 | 3.2 | 8.0 | 0.00 | 0.00 | 0.00 | 92 | 1008.7 |
| 20260506114015 | 22 | 8 | 3.2 | 9.7 | 0.00 | 0.00 | 0.00 | 92 | 1008.7 |
| 20260506113015 | 22 | 8 | 1.6 | 8.0 | 0.00 | 0.00 | 0.00 | 91 | 1008.6 |
| 20260506112015 | 22 | 8 | 1.6 | 6.4 | 0.00 | 0.00 | 0.00 | 91 | 1008.7 |
| 20260506111015 | 22 | 8 | 1.6 | 6.4 | 0.00 | 0.00 | 0.00 | 91 | 1008.7 |
| 20260506110015 | 22 | 8 | 1.6 | 6.4 | 0.00 | 0.00 | 0.00 | 91 | 1008.5 |
| 20260506105015 | 22 | 8 | 3.2 | 9.7 | 0.00 | 0.00 | 0.00 | 91 | 1008.6 |
| 20260506104015 | 22 | 8 | 1.6 | 4.8 | 0.00 | 0.00 | 0.00 | 91 | 1008.6 |
| 20260506103015 | 22 | 360 | 0.0 | 11.3 | 0.00 | 0.00 | 0.00 | 90 | 1008.6 |
| 20260506102016 | 22 | 360 | 0.0 | 12.9 | 0.00 | 0.00 | 0.00 | 90 | 1008.6 |
| 20260506101015 | 22 | 269 | 1.6 | 8.0 | 0.00 | 0.00 | 0.00 | 90 | 1008.5 |
| 20260506100015 | 22 | 358 | 1.6 | 14.5 | 0.00 | 0.00 | 0.00 | 90 | 1008.4 |
| 20260506095015 | 22 | 360 | 1.6 | 12.9 | 0.00 | 0.00 | 0.00 | 90 | 1008.4 |
| 20260506094015 | 22 | 357 | 1.6 | 14.5 | 0.00 | 0.00 | 0.00 | 89 | 1008.3 |
| 20260506093015 | 22 | 360 | 0.0 | 6.4 | 0.00 | 0.00 | 0.00 | 89 | 1008.2 |
| 20260506092015 | 22 | 358 | 1.6 | 14.5 | 0.00 | 0.00 | 0.00 | 89 | 1008.0 |
| 20260506091016 | 22 | 360 | 1.6 | 12.9 | 0.00 | 0.00 | 0.00 | 89 | 1008.1 |
| 20260506090056 | 22 | 4 | 1.6 | 12.9 | 0.00 | 0.00 | 0.00 | 88 | 1008.2 |
| 20260506085015 | 22 | 360 | 1.6 | 11.3 | 0.00 | 0.00 | 0.00 | 88 | 1008.3 |
| 20260506084015 | 22 | 7 | 1.6 | 14.5 | 0.00 | 0.00 | 0.00 | 88 | 1008.3 |
| 20260506083015 | 22 | 8 | 1.6 | 12.9 | 0.00 | 0.00 | 0.00 | 88 | 1008.3 |
| 20260506082036 | 22 | 360 | 0.0 | 12.9 | 0.00 | 0.00 | 0.00 | 88 | 1008.2 |
| 20260506081015 | 22 | 360 | 0.0 | 6.4 | 0.00 | 0.00 | 0.00 | 88 | 1008.2 |
| 20260506073015 | 22 | 360 | 0.0 | 3.2 | 0.00 | 0.00 | 0.00 | 87 | 1008.5 |
| 20260506072015 | 22 | 360 | 0.0 | 8.0 | 0.00 | 0.00 | 0.00 | 87 | 1008.6 |
| 20260506071016 | 22 | 7 | 0.0 | 11.3 | 0.00 | 0.00 | 0.00 | 88 | 1008.7 |
| 20260506062016 | 23 | 360 | 0.0 | 3.2 | 0.00 | 0.00 | 0.00 | 87 | 1009.1 |
| 20260506061015 | 23 | 360 | 0.0 | 3.2 | 0.00 | 0.00 | 0.00 | 87 | 1009.0 |
| 20260506051035 | 23 | 360 | 0.0 | 4.8 | 0.00 | 0.00 | 0.00 | 86 | 1008.8 |
| 20260506045015 | 23 | 360 | 0.0 | 14.5 | 0.00 | 0.00 | 0.00 | 85 | 1008.9 |
| 20260506044015 | 23 | 74 | 1.6 | 11.3 | 0.00 | 0.00 | 0.00 | 85 | 1009.0 |
| 20260506043015 | 23 | 360 | 0.0 | 12.9 | 0.00 | 0.00 | 0.00 | 85 | 1008.8 |
| 20260506042015 | 23 | 360 | 0.0 | 3.2 | 0.00 | 0.00 | 0.00 | 85 | 1008.9 |
| 20260506041015 | 23 | 360 | 0.0 | 11.3 | 0.00 | 0.00 | 0.00 | 85 | 1008.7 |
| 20260506040015 | 23 | 360 | 0.0 | 9.7 | 0.00 | 0.00 | 0.00 | 85 | 1008.6 |
| 20260506035016 | 23 | 360 | 0.0 | 11.3 | 0.00 | 0.00 | 0.00 | 84 | 1008.5 |
| 20260506034015 | 23 | 360 | 1.6 | 14.5 | 0.00 | 0.00 | 0.00 | 84 | 1008.3 |
| 20260506033015 | 23 | 360 | 0.0 | 14.5 | 0.00 | 0.00 | 0.00 | 83 | 1008.1 |
| 20260506032015 | 23 | 360 | 0.0 | 0.0 | 0.00 | 0.00 | 0.00 | 83 | 1008.1 |
| 20260506031015 | 23 | 360 | 0.0 | 0.0 | 0.00 | 0.00 | 0.00 | 82 | 1007.9 |
| 20260506030015 | 24 | 360 | 0.0 | 1.6 | 0.00 | 0.00 | 0.00 | 81 | 1007.8 |
| 20260506025015 | 24 | 0.0 | 0.0 | 0.00 | 0.00 | 0.00 | 81 | 1007.6 | |
| 20260506024015 | 24 | 360 | 0.0 | 6.4 | 0.00 | 0.00 | 0.00 | 80 | 1007.4 |
| 20260506023015 | 25 | 360 | 0.0 | 1.6 | 0.00 | 0.00 | 0.00 | 79 | 1007.2 |
| 20260506022015 | 25 | 360 | 0.0 | 14.5 | 0.00 | 0.00 | 0.00 | 78 | 1007.2 |
| 20260506021015 | 25 | 0.0 | 0.0 | 0.00 | 0.00 | 0.00 | 77 | 1007.1 | |
| 20260506020015 | 25 | 360 | 0.0 | 9.7 | 0.00 | 0.00 | 0.00 | 76 | 1006.9 |
| 20260506015015 | 25 | 360 | 0.0 | 3.2 | 0.00 | 0.00 | 0.00 | 75 | 1006.8 |
| 20260506014015 | 25 | 0.0 | 0.0 | 0.00 | 0.00 | 0.00 | 74 | 1006.7 | |
| 20260506013015 | 25 | 24 | 0.0 | 11.3 | 0.00 | 0.00 | 0.00 | 73 | 1006.7 |
| 20260506012015 | 26 | 77 | 1.6 | 6.4 | 0.00 | 0.00 | 0.00 | 73 | 1006.6 |
| 20260506011015 | 26 | 80 | 4.8 | 11.3 | 0.00 | 0.00 | 0.00 | 73 | 1006.5 |
| 20260506010015 | 26 | 85 | 3.2 | 6.4 | 0.00 | 0.00 | 0.00 | 72 | 1006.4 |
| 20260506005055 | 26 | 83 | 1.6 | 6.4 | 0.00 | 0.00 | 0.00 | 71 | 1006.4 |
| 20260506004015 | 26 | 76 | 1.6 | 9.7 | 0.00 | 0.00 | 0.00 | 71 | 1006.4 |
| 20260506003015 | 26 | 79 | 4.8 | 8.0 | 0.00 | 0.00 | 0.00 | 70 | 1006.2 |
| 20260506002035 | 26 | 78 | 3.2 | 9.7 | 0.00 | 0.00 | 0.00 | 69 | 1006.2 |
| 20260506001015 | 26 | 75 | 3.2 | 9.7 | 0.00 | 0.00 | 0.00 | 69 | 1006.1 |
| 20260506000035 | 26 | 360 | 0.0 | 0.0 | 0.00 | 0.00 | 0.00 | 69 | 1006.0 |
| 20260505235015 | 26 | 360 | 1.6 | 14.5 | 0.00 | 0.00 | 0.00 | 68 | 1005.9 |
| 20260505234015 | 26 | 20 | 0.0 | 12.9 | 0.00 | 0.00 | 0.00 | 69 | 1005.9 |
| 20260505233015 | 26 | 360 | 0.0 | 4.8 | 0.00 | 0.00 | 0.00 | 68 | 1005.8 |
| 20260505232015 | 26 | 0.0 | 0.0 | 0.00 | 0.00 | 0.00 | 68 | 1005.7 | |
| 20260505231015 | 26 | 360 | 0.0 | 11.3 | 0.00 | 0.00 | 0.00 | 67 | 1005.7 |
| 20260505230015 | 26 | 67 | 1.6 | 16.1 | 0.00 | 0.00 | 0.00 | 67 | 1005.7 |
| 20260505225015 | 26 | 15 | 0.0 | 9.7 | 0.00 | 0.00 | 0.00 | 67 | 1005.8 |
| 20260505224015 | 26 | 71 | 3.2 | 12.9 | 0.00 | 0.00 | 0.00 | 68 | 1005.9 |
| 20260505223015 | 26 | 0.0 | 0.0 | 0.00 | 0.00 | 0.00 | 67 | 1005.9 | |
| 20260505222015 | 27 | 75 | 1.6 | 11.3 | 0.00 | 0.00 | 0.00 | 67 | 1006.0 |
| 20260505221015 | 26 | 24 | 0.0 | 4.8 | 0.00 | 0.00 | 0.00 | 68 | 1006.0 |
| 20260505220015 | 26 | 360 | 0.0 | 6.4 | 0.00 | 0.00 | 0.00 | 68 | 1006.1 |
| 20260505215035 | 26 | 360 | 0.0 | 1.6 | 0.00 | 0.00 | 0.00 | 67 | 1006.4 |
| 20260505214015 | 26 | 0.0 | 0.0 | 0.00 | 0.00 | 0.00 | 67 | 1006.5 | |
| 20260505213015 | 26 | 72 | 4.8 | 16.1 | 0.00 | 0.00 | 0.00 | 67 | 1006.6 |
| 20260505212035 | 26 | 46 | 1.6 | 14.5 | 0.00 | 0.00 | 0.00 | 67 | 1006.7 |
| 20260505211015 | 26 | 54 | 1.6 | 14.5 | 0.00 | 0.00 | 0.00 | 68 | 1006.9 |
| 20260505210055 | 26 | 72 | 1.6 | 12.9 | 0.00 | 0.00 | 0.00 | 68 | 1007.0 |
| 20260505205015 | 26 | 360 | 0.0 | 1.6 | 0.00 | 0.00 | 0.00 | 68 | 1007.2 |
| 20260505204015 | 26 | 14 | 1.6 | 12.9 | 0.00 | 0.00 | 0.00 | 68 | 1007.4 |
| 20260505203015 | 26 | 50 | 4.8 | 16.1 | 0.00 | 0.00 | 0.00 | 69 | 1007.5 |
| 20260505202015 | 26 | 360 | 0.0 | 0.0 | 0.00 | 0.00 | 0.00 | 69 | 1007.6 |
| 20260505201015 | 26 | 0.0 | 0.0 | 0.00 | 0.00 | 0.00 | 72 | 1007.7 | |
| 20260505200015 | 26 | 54 | 0.0 | 12.9 | 0.00 | 0.00 | 0.00 | 71 | 1007.8 |
| 20260505195015 | 25 | 360 | 1.6 | 16.1 | 0.00 | 0.00 | 0.00 | 75 | 1007.9 |
| 20260505194015 | 25 | 360 | 0.0 | 11.3 | 0.00 | 0.00 | 0.00 | 75 | 1008.0 |
| 20260505193036 | 25 | 29 | 0.0 | 0.0 | 0.00 | 0.00 | 0.00 | 75 | 1008.1 |
| 20260505192015 | 25 | 360 | 0.0 | 3.2 | 0.00 | 0.00 | 0.00 | 75 | 1008.2 |
| 20260505191015 | 25 | 358 | 0.0 | 9.7 | 0.00 | 0.00 | 0.00 | 75 | 1008.4 |
| 20260505190015 | 25 | 360 | 0.0 | 0.0 | 0.00 | 0.00 | 0.00 | 75 | 1008.7 |
| 20260505185036 | 25 | 360 | 0.0 | 0.0 | 0.00 | 0.00 | 0.00 | 76 | 1008.7 |
| 20260505184015 | 24 | 360 | 1.6 | 14.5 | 0.00 | 0.00 | 0.00 | 77 | 1008.8 |
| 20260505183015 | 24 | 10 | 0.0 | 9.7 | 0.00 | 0.00 | 0.00 | 79 | 1008.8 |
| 20260505182015 | 23 | 28 | 0.0 | 8.0 | 0.00 | 0.00 | 0.00 | 80 | 1008.9 |
| 20260505181015 | 23 | 360 | 0.0 | 6.4 | 0.00 | 0.00 | 0.00 | 79 | 1009.0 |
| 20260505180015 | 23 | 360 | 0.0 | 12.9 | 0.00 | 0.00 | 0.00 | 80 | 1009.0 |
| 20260505175035 | 23 | 359 | 0.0 | 11.3 | 0.00 | 0.00 | 0.00 | 80 | 1009.0 |
| 20260505174015 | 23 | 360 | 0.0 | 0.0 | 0.00 | 0.00 | 0.00 | 81 | 1009.1 |
| 20260505173035 | 23 | 360 | 0.0 | 12.9 | 0.00 | 0.00 | 0.00 | 83 | 1009.2 |
| 20260505172015 | 23 | 0.0 | 0.0 | 0.00 | 0.00 | 0.00 | 83 | 1009.3 | |
| 20260505171015 | 22 | 0.0 | 0.0 | 0.00 | 0.00 | 0.00 | 84 | 1009.3 | |
| 20260505170015 | 22 | 0.0 | 0.0 | 0.00 | 0.00 | 0.00 | 84 | 1009.2 | |
| 20260505165036 | 22 | 234 | 9.7 | 19.3 | 0.00 | 0.00 | 0.00 | 85 | 1009.2 |
| 20260505164015 | 22 | 234 | 8.0 | 17.7 | 0.00 | 0.00 | 0.00 | 87 | 1009.2 |
| 20260505163015 | 22 | 237 | 4.8 | 14.5 | 0.00 | 0.00 | 0.00 | 87 | 1009.2 |
| 20260505162035 | 21 | 235 | 8.0 | 14.5 | 0.00 | 0.00 | 0.00 | 88 | 1009.2 |
| 20260505161015 | 21 | 236 | 6.4 | 16.1 | 0.00 | 0.00 | 0.00 | 89 | 1009.2 |
| 20260505153015 | 21 | 244 | 4.8 | 14.5 | 0.00 | 0.00 | 0.00 | 91 | 1009.1 |
| 20260505152015 | 21 | 239 | 4.8 | 17.7 | 0.00 | 0.00 | 0.00 | 92 | 1009.1 |
| 20260505151015 | 20 | 245 | 3.2 | 11.3 | 0.00 | 0.00 | 0.00 | 92 | 1009.1 |